| time (UTC) | temp C | wind direction | speed KPH | gust KPH | rain 1hr cm | rain 24hr cm | rain mn cm | humidity % | barometer mb |
| 20260904165645 | 12 | 45 | 4.8 | 4.8 | 0.00 | 0.30 | 0.30 | 84 | 1015.4 |
| 20260904165144 | 12 | 258 | 1.6 | 4.8 | 0.00 | 0.30 | 0.30 | 82 | 1015.5 |
| 20260904164640 | 12 | 90 | 0.0 | 4.8 | 0.00 | 0.30 | 0.30 | 84 | 1015.2 |
| 20260904164135 | 12 | 282 | 4.8 | 6.4 | 0.00 | 0.30 | 0.30 | 83 | 1015.2 |
| 20260904163631 | 12 | 45 | 0.0 | 6.4 | 0.00 | 0.30 | 0.30 | 85 | 1015.0 |
| 20260904163126 | 12 | 60 | 1.6 | 6.4 | 0.00 | 0.30 | 0.30 | 85 | 1014.9 |
| 20260904162625 | 11 | 127 | 0.0 | 4.8 | 0.00 | 0.30 | 0.30 | 88 | 1014.9 |
| 20260904162120 | 11 | 29 | 0.0 | 4.8 | 0.00 | 0.30 | 0.30 | 89 | 1014.9 |
| 20260904161616 | 11 | 8 | 0.0 | 3.2 | 0.00 | 0.30 | 0.30 | 90 | 1014.9 |
| 20260904161111 | 11 | 36 | 3.2 | 4.8 | 0.00 | 0.30 | 0.30 | 90 | 1014.7 |
| 20260904160606 | 10 | 26 | 3.2 | 3.2 | 0.00 | 0.30 | 0.30 | 89 | 1014.9 |
| 20260904155602 | 10 | 15 | 3.2 | 4.8 | 0.00 | 0.30 | 0.30 | 91 | 1014.8 |
| 20260904155056 | 10 | 63 | 3.2 | 3.2 | 0.00 | 0.30 | 0.30 | 91 | 1014.7 |
| 20260904154550 | 10 | 24 | 3.2 | 4.8 | 0.00 | 0.30 | 0.30 | 92 | 1014.8 |
| 20260904154045 | 10 | 99 | 3.2 | 4.8 | 0.00 | 0.30 | 0.30 | 92 | 1014.8 |
| 20260904153544 | 10 | 203 | 0.0 | 1.6 | 0.00 | 0.30 | 0.30 | 92 | 1014.7 |
| 20260904153041 | 10 | 206 | 0.0 | 4.8 | 0.00 | 0.30 | 0.30 | 93 | 1014.8 |
| 20260904152536 | 10 | 246 | 0.0 | 3.2 | 0.00 | 0.30 | 0.30 | 93 | 1014.4 |
| 20260904152031 | 10 | 331 | 0.0 | 8.0 | 0.00 | 0.30 | 0.30 | 93 | 1014.2 |
| 20260904151521 | 10 | 322 | 0.0 | 6.4 | 0.00 | 0.30 | 0.30 | 95 | 1014.2 |
| 20260904151021 | 10 | 286 | 4.8 | 6.4 | 0.00 | 0.30 | 0.30 | 95 | 1014.5 |
| 20260904150520 | 10 | 281 | 9.7 | 9.7 | 0.00 | 0.30 | 0.30 | 96 | 1014.2 |
| 20260904150015 | 10 | 298 | 4.8 | 6.4 | 0.00 | 0.30 | 0.30 | 96 | 1014.4 |
| 20260904145509 | 10 | 260 | 0.0 | 6.4 | 0.00 | 0.30 | 0.30 | 96 | 1014.2 |
| 20260904145005 | 10 | 244 | 4.8 | 8.0 | 0.00 | 0.30 | 0.30 | 96 | 1014.2 |
| 20260904144501 | 10 | 210 | 3.2 | 6.4 | 0.00 | 0.30 | 0.30 | 96 | 1013.9 |
| 20260904143956 | 10 | 180 | 0.0 | 3.2 | 0.00 | 0.30 | 0.30 | 96 | 1013.8 |
| 20260904143452 | 10 | 180 | 0.0 | 3.2 | 0.00 | 0.30 | 0.30 | 96 | 1013.5 |
| 20260904142949 | 10 | 166 | 0.0 | 1.6 | 0.00 | 0.30 | 0.30 | 96 | 1013.5 |
| 20260904142445 | 10 | 221 | 0.0 | 4.8 | 0.00 | 0.30 | 0.30 | 96 | 1013.2 |
| 20260904141944 | 10 | 73 | 3.2 | 4.8 | 0.00 | 0.30 | 0.30 | 96 | 1013.5 |
| 20260904141439 | 10 | 332 | 3.2 | 4.8 | 0.00 | 0.30 | 0.30 | 96 | 1013.5 |
| 20260904140936 | 9 | 15 | 0.0 | 0.0 | 0.00 | 0.30 | 0.30 | 96 | 1013.5 |
| 20260904140435 | 9 | 66 | 0.0 | 3.2 | 0.00 | 0.30 | 0.30 | 96 | 1013.1 |
| 20260904135935 | 9 | 90 | 1.6 | 4.8 | 0.00 | 0.30 | 0.30 | 95 | 1013.1 |
| 20260904135434 | 9 | 56 | 3.2 | 4.8 | 0.00 | 0.30 | 0.30 | 95 | 1012.9 |
| 20260904134931 | 9 | 8 | 0.0 | 3.2 | 0.00 | 0.30 | 0.30 | 95 | 1013.1 |
| 20260904134430 | 9 | 98 | 1.6 | 3.2 | 0.05 | 0.30 | 0.30 | 95 | 1013.2 |
| 20260904133925 | 9 | 101 | 4.8 | 6.4 | 0.05 | 0.30 | 0.30 | 95 | 1013.1 |
| 20260904133420 | 9 | 90 | 3.2 | 3.2 | 0.23 | 0.28 | 0.28 | 94 | 1013.1 |
| 20260904132916 | 9 | 98 | 3.2 | 4.8 | 0.30 | 0.28 | 0.28 | 94 | 1013.0 |
| 20260904132410 | 9 | 90 | 1.6 | 3.2 | 0.30 | 0.25 | 0.25 | 94 | 1013.0 |
| 20260904131910 | 10 | 114 | 1.6 | 3.2 | 0.30 | 0.23 | 0.23 | 93 | 1013.1 |
| 20260904131400 | 9 | 85 | 3.2 | 3.2 | 0.30 | 0.20 | 0.20 | 93 | 1012.9 |
| 20260904130855 | 10 | 90 | 3.2 | 3.2 | 0.43 | 0.18 | 0.18 | 92 | 1013.0 |
| 20260904130354 | 10 | 23 | 0.0 | 3.2 | 0.43 | 0.15 | 0.15 | 92 | 1012.9 |
| 20260904125849 | 10 | 183 | 0.0 | 6.4 | 0.36 | 0.10 | 0.10 | 92 | 1012.8 |
| 20260904125346 | 10 | 270 | 0.0 | 3.2 | 0.23 | 0.08 | 0.08 | 91 | 1012.9 |
| 20260904124844 | 10 | 260 | 3.2 | 4.8 | 0.05 | 0.05 | 0.05 | 90 | 1012.9 |
| 20260904124342 | 10 | 243 | 4.8 | 4.8 | 0.00 | 0.05 | 0.05 | 90 | 1012.7 |
| 20260904123836 | 10 | 168 | 3.2 | 4.8 | 0.00 | 0.05 | 0.05 | 90 | 1012.8 |
| 20260904123331 | 10 | 114 | 0.0 | 3.2 | 0.00 | 0.05 | 0.05 | 90 | 1012.7 |
| 20260904122826 | 10 | 240 | 0.0 | 4.8 | 0.00 | 0.05 | 0.05 | 90 | 1012.9 |
| 20260904122321 | 10 | 324 | 0.0 | 3.2 | 0.00 | 0.05 | 0.05 | 90 | 1012.6 |
| 20260904121816 | 10 | 165 | 0.0 | 1.6 | 0.00 | 0.05 | 0.05 | 90 | 1012.5 |
| 20260904121312 | 10 | 180 | 3.2 | 4.8 | 0.05 | 0.05 | 0.05 | 89 | 1012.6 |
| 20260904120809 | 10 | 305 | 3.2 | 6.4 | 0.05 | 0.05 | 0.05 | 89 | 1012.4 |
| 20260904120303 | 10 | 60 | 0.0 | 4.8 | 0.00 | 0.03 | 0.03 | 88 | 1012.3 |
| 20260904115759 | 10 | 331 | 0.0 | 4.8 | 0.00 | 0.03 | 0.03 | 88 | 1012.5 |
| 20260904115254 | 10 | 306 | 6.4 | 6.4 | 0.00 | 0.03 | 0.03 | 87 | 1012.1 |
| 20260904114748 | 10 | 240 | 0.0 | 4.8 | 0.00 | 0.03 | 0.03 | 88 | 1012.1 |
| 20260904114248 | 10 | 243 | 1.6 | 4.8 | 0.00 | 0.03 | 0.03 | 89 | 1012.3 |
| 20260904113743 | 10 | 198 | 4.8 | 4.8 | 0.00 | 0.03 | 0.03 | 89 | 1012.0 |
| 20260904113242 | 10 | 90 | 0.0 | 4.8 | 0.00 | 0.03 | 0.03 | 88 | 1012.0 |
| 20260904112737 | 10 | 186 | 0.0 | 3.2 | 0.00 | 0.03 | 0.03 | 87 | 1011.9 |
| 20260904112233 | 10 | 85 | 3.2 | 4.8 | 0.00 | 0.03 | 0.03 | 87 | 1011.5 |
| 20260904111729 | 10 | 82 | 4.8 | 6.4 | 0.00 | 0.03 | 0.03 | 88 | 1011.7 |
| 20260904111224 | 10 | 94 | 3.2 | 3.2 | 0.00 | 0.03 | 0.03 | 87 | 1011.7 |
| 20260904110720 | 11 | 7 | 0.0 | 4.8 | 0.00 | 0.03 | 0.03 | 85 | 1011.6 |
| 20260904110219 | 10 | 274 | 8.0 | 16.1 | 0.00 | 0.03 | 0.03 | 86 | 1011.4 |
| 20260904105714 | 10 | 20 | 0.0 | 4.8 | 0.00 | 0.03 | 0.03 | 91 | 1011.6 |
| 20260904105209 | 10 | 72 | 3.2 | 4.8 | 0.00 | 0.03 | 0.03 | 90 | 1011.6 |
| 20260904104704 | 10 | 105 | 4.8 | 4.8 | 0.00 | 0.03 | 0.03 | 89 | 1011.3 |
| 20260904104200 | 10 | 57 | 1.6 | 3.2 | 0.05 | 0.03 | 0.03 | 89 | 1011.3 |
| 20260904103656 | 10 | 69 | 1.6 | 1.6 | 0.05 | 0.03 | 0.03 | 90 | 1011.1 |
| 20260904103151 | 10 | 90 | 1.6 | 3.2 | 0.05 | 0.03 | 0.03 | 90 | 1011.0 |
| 20260904102647 | 10 | 139 | 3.2 | 3.2 | 0.05 | 0.03 | 0.03 | 90 | 1010.8 |
| 20260904102142 | 10 | 21 | 3.2 | 8.0 | 0.05 | 0.00 | 0.00 | 89 | 1010.7 |
| 20260904101639 | 10 | 139 | 3.2 | 4.8 | 0.05 | 0.00 | 0.00 | 87 | 1010.4 |
| 20260904101134 | 10 | 115 | 3.2 | 4.8 | 0.00 | 0.00 | 0.00 | 86 | 1010.4 |
| 20260904100630 | 10 | 335 | 4.8 | 8.0 | 0.00 | 0.00 | 0.00 | 87 | 1010.5 |
| 20260904100125 | 10 | 6 | 0.0 | 3.2 | 0.00 | 0.00 | 0.00 | 88 | 1010.9 |
| 20260904095619 | 10 | 107 | 4.8 | 4.8 | 0.00 | 0.00 | 0.00 | 88 | 1010.4 |
| 20260904095114 | 10 | 109 | 1.6 | 1.6 | 0.00 | 0.00 | 0.00 | 88 | 1009.7 |
| 20260904094609 | 10 | 82 | 0.0 | 3.2 | 0.00 | 0.00 | 0.00 | 87 | 1009.4 |
| 20260904094104 | 10 | 110 | 3.2 | 4.8 | 0.00 | 0.00 | 0.00 | 87 | 1009.0 |
| 20260904093601 | 10 | 94 | 4.8 | 4.8 | 0.00 | 0.00 | 0.00 | 87 | 1009.1 |
| 20260904093101 | 10 | 72 | 3.2 | 4.8 | 0.00 | 0.00 | 0.00 | 88 | 1008.7 |
| 20260904092557 | 10 | 74 | 1.6 | 3.2 | 0.00 | 0.00 | 0.00 | 88 | 1008.7 |
| 20260904092053 | 10 | 82 | 3.2 | 4.8 | 0.00 | 0.00 | 0.00 | 88 | 1008.5 |
| 20260904091549 | 10 | 154 | 0.0 | 3.2 | 0.00 | 0.00 | 0.00 | 88 | 1008.6 |
| 20260904091048 | 10 | 99 | 3.2 | 3.2 | 0.00 | 0.00 | 0.00 | 87 | 1008.1 |
| 20260904090544 | 10 | 81 | 3.2 | 4.8 | 0.00 | 0.00 | 0.00 | 86 | 1007.9 |
| 20260904090039 | 10 | 90 | 3.2 | 4.8 | 0.00 | 0.00 | 0.00 | 86 | 1007.8 |
| 20260904085534 | 10 | 90 | 3.2 | 3.2 | 0.00 | 0.00 | 0.00 | 86 | 1007.9 |
| 20260904085034 | 10 | 98 | 1.6 | 4.8 | 0.00 | 0.00 | 0.00 | 87 | 1007.7 |
| 20260904084530 | 10 | 90 | 3.2 | 4.8 | 0.00 | 0.00 | 0.00 | 87 | 1008.1 |
| 20260904084026 | 10 | 90 | 3.2 | 4.8 | 0.00 | 0.00 | 0.00 | 87 | 1007.9 |
| 20260904083522 | 10 | 105 | 1.6 | 4.8 | 0.00 | 0.00 | 0.00 | 87 | 1007.7 |
| 20260904083017 | 10 | 100 | 3.2 | 3.2 | 0.00 | 0.00 | 0.00 | 87 | 1007.8 |
| 20260904082512 | 10 | 90 | 3.2 | 4.8 | 0.00 | 0.00 | 0.00 | 86 | 1007.8 |
| 20260904082007 | 10 | 105 | 3.2 | 4.8 | 0.00 | 0.00 | 0.00 | 86 | 1007.4 |
| 20260904081503 | 10 | 85 | 3.2 | 3.2 | 0.00 | 0.00 | 0.00 | 86 | 1007.6 |
| 20260904080958 | 10 | 106 | 1.6 | 1.6 | 0.00 | 0.00 | 0.00 | 86 | 1007.9 |
| 20260904080453 | 10 | 102 | 1.6 | 3.2 | 0.00 | 0.00 | 0.00 | 86 | 1007.8 |
| 20260904075949 | 10 | 84 | 3.2 | 3.2 | 0.00 | 0.00 | 0.00 | 86 | 1007.7 |
| 20260904075445 | 10 | 86 | 3.2 | 4.8 | 0.00 | 0.00 | 0.00 | 85 | 1007.7 |
| 20260904074944 | 10 | 111 | 0.0 | 4.8 | 0.00 | 0.00 | 0.00 | 85 | 1007.8 |
| 20260904074439 | 10 | 100 | 4.8 | 9.7 | 0.00 | 0.00 | 0.00 | 85 | 1007.8 |
| 20260904073934 | 10 | 115 | 3.2 | 11.3 | 0.00 | 0.00 | 0.00 | 86 | 1007.8 |
| 20260904073430 | 9 | 106 | 6.4 | 11.3 | 0.00 | 0.00 | 0.00 | 87 | 1007.7 |
| 20260904072925 | 9 | 90 | 4.8 | 6.4 | 0.00 | 0.00 | 0.00 | 88 | 1007.9 |
| 20260904072420 | 9 | 108 | 4.8 | 6.4 | 0.00 | 0.00 | 0.00 | 88 | 1007.9 |
| 20260904071916 | 9 | 104 | 4.8 | 6.4 | 0.00 | 0.00 | 0.00 | 87 | 1008.0 |
| 20260904071411 | 10 | 87 | 4.8 | 8.0 | 0.00 | 0.00 | 0.00 | 87 | 1008.1 |
| 20260904070906 | 10 | 112 | 4.8 | 8.0 | 0.00 | 0.00 | 0.00 | 86 | 1008.0 |
| 20260904070404 | 10 | 103 | 4.8 | 6.4 | 0.00 | 0.00 | 0.00 | 86 | 1007.9 |
| 20260904065905 | 10 | 93 | 6.4 | 9.7 | 0.00 | 0.00 | 0.00 | 87 | 1007.9 |
| 20260904065401 | 9 | 98 | 4.8 | 9.7 | 0.00 | 0.00 | 0.00 | 88 | 1007.8 |
| 20260904064900 | 9 | 111 | 1.6 | 4.8 | 0.00 | 0.00 | 0.00 | 87 | 1007.9 |
| 20260904064357 | 10 | 109 | 4.8 | 4.8 | 0.00 | 0.00 | 0.00 | 87 | 1008.1 |
| 20260904063852 | 10 | 87 | 4.8 | 6.4 | 0.00 | 0.00 | 0.00 | 87 | 1007.9 |
| 20260904063349 | 10 | 113 | 3.2 | 6.4 | 0.00 | 0.00 | 0.00 | 87 | 1007.7 |
| 20260904062843 | 10 | 94 | 3.2 | 4.8 | 0.00 | 0.00 | 0.00 | 87 | 1007.8 |
| 20260904062340 | 10 | 108 | 4.8 | 6.4 | 0.00 | 0.00 | 0.00 | 86 | 1007.8 |
| 20260904061835 | 10 | 85 | 6.4 | 8.0 | 0.00 | 0.00 | 0.00 | 86 | 1007.7 |
| 20260904061331 | 10 | 101 | 3.2 | 3.2 | 0.00 | 0.00 | 0.00 | 87 | 1007.9 |
| 20260904060827 | 10 | 101 | 3.2 | 4.8 | 0.00 | 0.00 | 0.00 | 87 | 1008.4 |
| 20260904060323 | 10 | 126 | 0.0 | 3.2 | 0.00 | 0.00 | 0.00 | 85 | 1007.8 |
| 20260904055818 | 10 | 103 | 6.4 | 6.4 | 0.00 | 0.20 | 0.20 | 86 | 1008.1 |
| 20260904055313 | 10 | 75 | 3.2 | 4.8 | 0.00 | 0.20 | 0.20 | 85 | 1008.0 |
| 20260904054803 | 10 | 95 | 3.2 | 4.8 | 0.00 | 0.20 | 0.20 | 85 | 1008.5 |
| 20260904054259 | 11 | 90 | 3.2 | 3.2 | 0.00 | 0.20 | 0.20 | 84 | 1008.3 |
| 20260904053754 | 11 | 86 | 4.8 | 4.8 | 0.00 | 0.20 | 0.20 | 83 | 1008.1 |
| 20260904053253 | 10 | 116 | 6.4 | 6.4 | 0.00 | 0.20 | 0.20 | 86 | 1008.5 |
| 20260904052750 | 10 | 98 | 3.2 | 3.2 | 0.00 | 0.20 | 0.20 | 86 | 1008.5 |
| 20260904052246 | 11 | 98 | 3.2 | 4.8 | 0.00 | 0.20 | 0.20 | 86 | 1008.7 |
| 20260904051742 | 11 | 103 | 3.2 | 4.8 | 0.00 | 0.20 | 0.20 | 85 | 1008.5 |
| 20260904051237 | 11 | 107 | 3.2 | 3.2 | 0.00 | 0.20 | 0.20 | 84 | 1008.6 |
| 20260904050732 | 11 | 90 | 0.0 | 0.0 | 0.00 | 0.20 | 0.20 | 84 | 1008.7 |
| 20260904050228 | 11 | 66 | 1.6 | 1.6 | 0.00 | 0.20 | 0.20 | 84 | 1008.6 |
| 20260904045723 | 11 | 90 | 3.2 | 3.2 | 0.00 | 0.20 | 0.20 | 82 | 1008.6 |
| 20260904045218 | 12 | 74 | 3.2 | 4.8 | 0.00 | 0.20 | 0.20 | 82 | 1009.1 |
| 20260904044713 | 12 | 114 | 0.0 | 1.6 | 0.00 | 0.20 | 0.20 | 81 | 1009.0 |
| 20260904044209 | 12 | 194 | 0.0 | 1.6 | 0.00 | 0.20 | 0.20 | 81 | 1009.4 |
| 20260904043705 | 12 | 65 | 3.2 | 4.8 | 0.00 | 0.20 | 0.20 | 80 | 1008.9 |
| 20260904043201 | 12 | 90 | 1.6 | 4.8 | 0.00 | 0.20 | 0.20 | 80 | 1009.3 |
| 20260904042657 | 12 | 161 | 3.2 | 4.8 | 0.00 | 0.20 | 0.20 | 80 | 1009.7 |
| 20260904042153 | 12 | 54 | 1.6 | 3.2 | 0.00 | 0.20 | 0.20 | 81 | 1009.6 |
| 20260904041647 | 12 | 198 | 1.6 | 4.8 | 0.00 | 0.20 | 0.20 | 80 | 1009.6 |
| 20260904041143 | 12 | 140 | 0.0 | 4.8 | 0.00 | 0.20 | 0.20 | 78 | 1009.7 |
| 20260904040639 | 12 | 240 | 0.0 | 4.8 | 0.00 | 0.20 | 0.20 | 76 | 1009.4 |
| 20260904040135 | 12 | 116 | 6.4 | 8.0 | 0.00 | 0.20 | 0.20 | 76 | 1009.4 |
| 20260904035630 | 12 | 106 | 4.8 | 6.4 | 0.00 | 0.20 | 0.20 | 77 | 1009.5 |
| 20260904035125 | 12 | 137 | 8.0 | 12.9 | 0.00 | 0.20 | 0.20 | 77 | 1009.3 |
| 20260904034624 | 12 | 92 | 6.4 | 11.3 | 0.00 | 0.20 | 0.20 | 77 | 1009.6 |
| 20260904034120 | 12 | 62 | 9.7 | 12.9 | 0.00 | 0.20 | 0.20 | 76 | 1009.7 |
| 20260904033615 | 12 | 105 | 6.4 | 16.1 | 0.00 | 0.20 | 0.20 | 76 | 1009.7 |
| 20260904033113 | 12 | 115 | 8.0 | 16.1 | 0.00 | 0.20 | 0.20 | 76 | 1009.5 |
| 20260904032608 | 12 | 134 | 6.4 | 14.5 | 0.00 | 0.20 | 0.20 | 76 | 1009.7 |
| 20260904032107 | 12 | 100 | 6.4 | 12.9 | 0.00 | 0.20 | 0.20 | 75 | 1009.9 |
| 20260904031606 | 12 | 114 | 11.3 | 12.9 | 0.00 | 0.20 | 0.20 | 75 | 1010.0 |
| 20260904031103 | 12 | 116 | 12.9 | 14.5 | 0.00 | 0.20 | 0.20 | 75 | 1010.1 |
| 20260904030558 | 12 | 107 | 8.0 | 14.5 | 0.00 | 0.20 | 0.20 | 78 | 1009.8 |
| 20260904030053 | 12 | 98 | 4.8 | 14.5 | 0.00 | 0.20 | 0.20 | 80 | 1010.0 |
| 20260904025549 | 12 | 111 | 9.7 | 14.5 | 0.00 | 0.20 | 0.20 | 79 | 1010.3 |
| 20260904025044 | 12 | 101 | 4.8 | 12.9 | 0.00 | 0.20 | 0.20 | 79 | 1010.4 |
| 20260904024539 | 12 | 112 | 11.3 | 16.1 | 0.00 | 0.20 | 0.20 | 78 | 1010.1 |
| 20260904024035 | 13 | 120 | 4.8 | 11.3 | 0.00 | 0.20 | 0.20 | 77 | 1010.0 |
| 20260904023531 | 13 | 118 | 12.9 | 12.9 | 0.00 | 0.20 | 0.20 | 76 | 1009.7 |
| 20260904023026 | 13 | 124 | 6.4 | 9.7 | 0.00 | 0.20 | 0.20 | 76 | 1010.0 |
| 20260904022521 | 13 | 128 | 6.4 | 12.9 | 0.00 | 0.20 | 0.20 | 76 | 1010.3 |
| 20260904022018 | 13 | 110 | 4.8 | 8.0 | 0.00 | 0.20 | 0.20 | 77 | 1010.4 |
| 20260904021513 | 13 | 102 | 4.8 | 6.4 | 0.00 | 0.20 | 0.20 | 76 | 1010.3 |
| 20260904021009 | 13 | 108 | 4.8 | 4.8 | 0.00 | 0.20 | 0.20 | 77 | 1010.8 |
| 20260904020503 | 13 | 85 | 3.2 | 4.8 | 0.00 | 0.20 | 0.20 | 78 | 1010.6 |
| 20260904020003 | 13 | 90 | 1.6 | 3.2 | 0.00 | 0.20 | 0.20 | 76 | 1010.4 |
| 20260904015458 | 13 | 105 | 3.2 | 4.8 | 0.00 | 0.20 | 0.20 | 76 | 1010.5 |
| 20260904014956 | 14 | 110 | 3.2 | 4.8 | 0.00 | 0.20 | 0.20 | 75 | 1010.8 |
| 20260904014451 | 14 | 95 | 3.2 | 4.8 | 0.00 | 0.20 | 0.20 | 73 | 1010.7 |
| 20260904013947 | 14 | 111 | 4.8 | 4.8 | 0.00 | 0.20 | 0.20 | 74 | 1010.8 |
| 20260904013443 | 15 | 113 | 4.8 | 4.8 | 0.00 | 0.20 | 0.20 | 71 | 1010.7 |
| 20260904012939 | 15 | 79 | 4.8 | 4.8 | 0.00 | 0.20 | 0.20 | 66 | 1010.8 |
| 20260904012438 | 16 | 52 | 3.2 | 3.2 | 0.00 | 0.20 | 0.20 | 69 | 1010.7 |
| 20260904011933 | 16 | 90 | 0.0 | 3.2 | 0.00 | 0.20 | 0.20 | 68 | 1010.9 |
| 20260904011427 | 15 | 117 | 3.2 | 3.2 | 0.00 | 0.20 | 0.20 | 72 | 1010.9 |
| 20260904010923 | 16 | 90 | 0.0 | 3.2 | 0.00 | 0.20 | 0.20 | 69 | 1010.9 |
| 20260904010420 | 16 | 66 | 3.2 | 3.2 | 0.00 | 0.20 | 0.20 | 67 | 1011.1 |
| 20260904005914 | 16 | 114 | 6.4 | 6.4 | 0.00 | 0.20 | 0.20 | 64 | 1010.9 |
| 20260904005410 | 17 | 26 | 1.6 | 3.2 | 0.00 | 0.20 | 0.20 | 65 | 1011.1 |
| 20260904004904 | 17 | 20 | 0.0 | 3.2 | 0.00 | 0.20 | 0.20 | 69 | 1011.4 |
| 20260904004401 | 16 | 32 | 0.0 | 3.2 | 0.00 | 0.20 | 0.20 | 69 | 1011.5 |
| 20260904003901 | 16 | 151 | 0.0 | 3.2 | 0.00 | 0.20 | 0.20 | 72 | 1011.1 |
| 20260904003356 | 16 | 23 | 0.0 | 4.8 | 0.00 | 0.20 | 0.20 | 73 | 1011.4 |
| 20260904002851 | 16 | 23 | 3.2 | 6.4 | 0.00 | 0.20 | 0.20 | 71 | 1011.3 |
| 20260904002348 | 16 | 121 | 4.8 | 4.8 | 0.00 | 0.20 | 0.20 | 72 | 1011.5 |
| 20260904001847 | 16 | 108 | 0.0 | 3.2 | 0.00 | 0.20 | 0.20 | 71 | 1011.4 |
| 20260904001343 | 16 | 57 | 0.0 | 4.8 | 0.00 | 0.20 | 0.20 | 73 | 1011.6 |
| 20260904000837 | 16 | 60 | 0.0 | 4.8 | 0.00 | 0.20 | 0.20 | 73 | 1011.5 |
| 20260904000336 | 16 | 48 | 3.2 | 3.2 | 0.00 | 0.20 | 0.20 | 73 | 1011.6 |
| 20260903235831 | 16 | 98 | 1.6 | 6.4 | 0.00 | 0.20 | 0.20 | 75 | 1011.5 |
| 20260903235327 | 16 | 69 | 0.0 | 3.2 | 0.00 | 0.20 | 0.20 | 69 | 1011.7 |
| 20260903234826 | 16 | 15 | 1.6 | 3.2 | 0.00 | 0.20 | 0.20 | 71 | 1011.9 |
| 20260903234323 | 16 | 90 | 4.8 | 4.8 | 0.00 | 0.20 | 0.20 | 76 | 1011.9 |
| 20260903233819 | 15 | 107 | 3.2 | 4.8 | 0.00 | 0.20 | 0.20 | 75 | 1011.9 |
| 20260903233315 | 15 | 192 | 1.6 | 3.2 | 0.00 | 0.20 | 0.20 | 84 | 1012.1 |
| 20260903232814 | 15 | 103 | 0.0 | 4.8 | 0.00 | 0.20 | 0.20 | 86 | 1011.9 |
| 20260903232310 | 15 | 90 | 4.8 | 6.4 | 0.05 | 0.20 | 0.20 | 84 | 1012.0 |
| 20260903231809 | 15 | 174 | 1.6 | 3.2 | 0.18 | 0.20 | 0.20 | 83 | 1012.4 |
| 20260903231304 | 15 | 107 | 3.2 | 3.2 | 0.18 | 0.20 | 0.20 | 81 | 1012.6 |
| 20260903230759 | 15 | 293 | 4.8 | 6.4 | 0.05 | 0.18 | 0.18 | 78 | 1012.5 |
| 20260903230254 | 15 | 255 | 8.0 | 9.7 | 0.00 | 0.18 | 0.18 | 77 | 1012.4 |
| 20260903225750 | 15 | 279 | 6.4 | 9.7 | 0.00 | 0.18 | 0.18 | 75 | 1012.4 |
| 20260903225246 | 15 | 279 | 3.2 | 6.4 | 0.00 | 0.18 | 0.18 | 72 | 1012.3 |
| 20260903224742 | 16 | 285 | 8.0 | 11.3 | 0.00 | 0.18 | 0.18 | 72 | 1011.9 |
| 20260903224238 | 16 | 270 | 4.8 | 14.5 | 0.00 | 0.18 | 0.18 | 73 | 1012.0 |
| 20260903223733 | 16 | 324 | 3.2 | 8.0 | 0.00 | 0.18 | 0.18 | 72 | 1012.0 |
| 20260903223232 | 16 | 355 | 3.2 | 6.4 | 0.00 | 0.18 | 0.18 | 73 | 1012.0 |
| 20260903222727 | 16 | 180 | 0.0 | 4.8 | 0.05 | 0.18 | 0.18 | 75 | 1012.0 |
| 20260903222226 | 16 | 165 | 1.6 | 4.8 | 0.05 | 0.18 | 0.18 | 78 | 1012.3 |
| 20260903221721 | 16 | 190 | 0.0 | 3.2 | 0.05 | 0.15 | 0.15 | 78 | 1012.1 |
| 20260903221220 | 16 | 188 | 0.0 | 6.4 | 0.05 | 0.15 | 0.15 | 75 | 1011.9 |
| 20260903220718 | 16 | 294 | 4.8 | 4.8 | 0.00 | 0.15 | 0.15 | 75 | 1012.0 |
| 20260903220213 | 16 | 286 | 4.8 | 9.7 | 0.00 | 0.15 | 0.15 | 73 | 1012.0 |
| 20260903215712 | 16 | 247 | 8.0 | 11.3 | 0.00 | 0.15 | 0.15 | 73 | 1012.0 |
| 20260903215208 | 16 | 270 | 0.0 | 4.8 | 0.00 | 0.15 | 0.15 | 76 | 1012.1 |
| 20260903214706 | 16 | 323 | 3.2 | 6.4 | 0.00 | 0.15 | 0.15 | 76 | 1012.0 |
| 20260903214202 | 16 | 285 | 1.6 | 3.2 | 0.00 | 0.15 | 0.15 | 75 | 1011.8 |
| 20260903213656 | 16 | 6 | 0.0 | 4.8 | 0.00 | 0.15 | 0.15 | 73 | 1012.0 |
| 20260903213152 | 16 | 233 | 3.2 | 8.0 | 0.00 | 0.15 | 0.15 | 74 | 1011.7 |
| 20260903212648 | 16 | 7 | 1.6 | 4.8 | 0.00 | 0.15 | 0.15 | 74 | 1012.3 |
| 20260903212144 | 17 | 90 | 0.0 | 6.4 | 0.18 | 0.15 | 0.15 | 81 | 1012.0 |
| 20260903211638 | 16 | 154 | 0.0 | 3.2 | 0.36 | 0.15 | 0.15 | 79 | 1011.7 |
| 20260903211135 | 15 | 285 | 1.6 | 4.8 | 0.23 | 0.13 | 0.13 | 77 | 1012.0 |
| 20260903210630 | 16 | 321 | 4.8 | 4.8 | 0.13 | 0.10 | 0.10 | 69 | 1011.9 |
| 20260903210125 | 16 | 194 | 3.2 | 3.2 | 0.05 | 0.08 | 0.08 | 67 | 1012.1 |
| 20260903205619 | 16 | 199 | 3.2 | 4.8 | 0.00 | 0.08 | 0.08 | 63 | 1011.9 |
| 20260903205119 | 16 | 228 | 3.2 | 6.4 | 0.00 | 0.08 | 0.08 | 61 | 1011.9 |
| 20260903204614 | 17 | 289 | 1.6 | 6.4 | 0.00 | 0.08 | 0.08 | 60 | 1011.8 |
| 20260903204110 | 17 | 267 | 4.8 | 8.0 | 0.00 | 0.08 | 0.08 | 61 | 1012.1 |
| 20260903203606 | 17 | 314 | 6.4 | 6.4 | 0.00 | 0.08 | 0.08 | 63 | 1011.9 |
| 20260903203106 | 17 | 0 | 3.2 | 9.7 | 0.00 | 0.08 | 0.08 | 66 | 1011.9 |
| 20260903202556 | 17 | 288 | 14.5 | 14.5 | 0.00 | 0.08 | 0.08 | 63 | 1012.0 |
| 20260903202051 | 18 | 321 | 8.0 | 11.3 | 0.00 | 0.08 | 0.08 | 62 | 1011.8 |
| 20260903201545 | 18 | 261 | 0.0 | 11.3 | 0.00 | 0.08 | 0.08 | 58 | 1011.8 |
| 20260903201044 | 18 | 53 | 0.0 | 8.0 | 0.00 | 0.08 | 0.08 | 67 | 1011.7 |
| 20260903200539 | 17 | 212 | 8.0 | 11.3 | 0.00 | 0.08 | 0.08 | 66 | 1011.7 |
| 20260903200034 | 17 | 106 | 0.0 | 3.2 | 0.00 | 0.08 | 0.08 | 68 | 1011.8 |
| 20260903195531 | 16 | 90 | 1.6 | 4.8 | 0.05 | 0.08 | 0.08 | 76 | 1011.9 |
| 20260903195026 | 15 | 217 | 6.4 | 6.4 | 0.23 | 0.08 | 0.08 | 78 | 1012.1 |
| 20260903194521 | 14 | 249 | 4.8 | 14.5 | 0.18 | 0.05 | 0.05 | 73 | 1012.0 |
| 20260903194016 | 15 | 274 | 4.8 | 14.5 | 0.05 | 0.03 | 0.03 | 75 | 1012.4 |
| 20260903193513 | 16 | 276 | 4.8 | 8.0 | 0.05 | 0.03 | 0.03 | 66 | 1012.4 |
| 20260903193007 | 16 | 280 | 6.4 | 6.4 | 0.00 | 0.00 | 0.00 | 63 | 1012.3 |
| 20260903192459 | 16 | 18 | 1.6 | 4.8 | 0.00 | 0.00 | 0.00 | 64 | 1012.1 |
| 20260903191959 | 16 | 252 | 4.8 | 8.0 | 0.00 | 0.00 | 0.00 | 62 | 1012.1 |
| 20260903191454 | 17 | 298 | 4.8 | 9.7 | 0.00 | 0.00 | 0.00 | 61 | 1012.1 |
| 20260903190949 | 17 | 275 | 9.7 | 9.7 | 0.00 | 0.00 | 0.00 | 64 | 1012.1 |
| 20260903190448 | 17 | 273 | 4.8 | 8.0 | 0.00 | 0.00 | 0.00 | 65 | 1012.1 |
| 20260903185943 | 17 | 0 | 4.8 | 8.0 | 0.00 | 0.00 | 0.00 | 65 | 1012.0 |
| 20260903185439 | 16 | 5 | 3.2 | 9.7 | 0.00 | 0.00 | 0.00 | 64 | 1012.1 |
| 20260903184939 | 16 | 90 | 3.2 | 6.4 | 0.00 | 0.00 | 0.00 | 67 | 1012.4 |
| 20260903184436 | 16 | 270 | 1.6 | 6.4 | 0.00 | 0.00 | 0.00 | 69 | 1012.4 |
| 20260903183930 | 16 | 302 | 4.8 | 4.8 | 0.00 | 0.00 | 0.00 | 70 | 1012.6 |
| 20260903183425 | 15 | 285 | 4.8 | 4.8 | 0.00 | 0.00 | 0.00 | 71 | 1012.5 |
| 20260903182924 | 16 | 33 | 3.2 | 3.2 | 0.00 | 0.00 | 0.00 | 74 | 1012.5 |
| 20260903182423 | 15 | 131 | 3.2 | 3.2 | 0.00 | 0.00 | 0.00 | 72 | 1012.7 |
| 20260903181918 | 15 | 342 | 1.6 | 6.4 | 0.00 | 0.00 | 0.00 | 76 | 1012.6 |
| 20260903181413 | 15 | 307 | 3.2 | 8.0 | 0.00 | 0.00 | 0.00 | 77 | 1012.5 |
| 20260903180912 | 15 | 307 | 3.2 | 4.8 | 0.05 | 0.00 | 0.00 | 77 | 1012.6 |
| 20260903180407 | 14 | 270 | 0.0 | 4.8 | 0.00 | 0.00 | 0.00 | 74 | 1012.9 |
| 20260903175907 | 14 | 248 | 3.2 | 6.4 | 0.00 | 0.00 | 0.00 | 74 | 1012.9 |
| 20260903175401 | 15 | 328 | 4.8 | 6.4 | 0.00 | 0.00 | 0.00 | 74 | 1013.0 |
| 20260903174855 | 15 | 309 | 3.2 | 4.8 | 0.00 | 0.00 | 0.00 | 73 | 1012.9 |
| 20260903174350 | 15 | 279 | 3.2 | 4.8 | 0.00 | 0.00 | 0.00 | 75 | 1013.0 |
| 20260903173844 | 15 | 257 | 0.0 | 1.6 | 0.00 | 0.00 | 0.00 | 73 | 1013.0 |
| 20260903173340 | 15 | 47 | 4.8 | 4.8 | 0.00 | 0.00 | 0.00 | 75 | 1013.1 |
| 20260903172836 | 15 | 57 | 0.0 | 6.4 | 0.00 | 0.00 | 0.00 | 77 | 1012.9 |
| 20260903172330 | 13 | 172 | 0.0 | 3.2 | 0.00 | 0.00 | 0.00 | 79 | 1013.0 |
| 20260903171826 | 13 | 215 | 0.0 | 4.8 | 0.00 | 0.00 | 0.00 | 81 | 1013.0 |
| 20260903171321 | 12 | 83 | 4.8 | 4.8 | 0.00 | 0.00 | 0.00 | 82 | 1012.9 |
| 20260903170820 | 12 | 29 | 0.0 | 3.2 | 0.00 | 0.00 | 0.00 | 84 | 1013.0 |
| 20260903170316 | 12 | 330 | 3.2 | 3.2 | 0.00 | 0.00 | 0.00 | 83 | 1013.1 |